Regional Weather Roundup
Issued by NWS Charleston, SC

Current Version | Previous Version | Text Only | Print | Product List | Glossary Off
Versions: 1 2 3 4 5 6 7 8 9 10 11 12 13 14 15 16 17 18 19 20 21 22 23 24 25 26 27 28 29 30 31 32 33 34 35 36 37 38 39 40 41 42 43 44 45 46 47 48 49 50

000
ASUS42 KCHS 201610
RWRCHS
REGIONAL WEATHER ROUNDUP
NATIONAL WEATHER SERVICE CHARLESTON SC
1200 PM EDT SAT SEP 20 2014

NOTE: "FAIR" INDICATES FEW OR NO CLOUDS BELOW 12,000 FEET WITH NO
SIGNIFICANT WEATHER AND/OR OBSTRUCTIONS TO VISIBILITY.

NOT ALL STATIONS ARE QUALITY CONTROLLED BY THE NATIONAL
WEATHER SERVICE. USE DATA WITH CAUTION...ESPECIALLY
DEWPOINT OBSERVATIONS.

SCZ027-030-031-034>040-042>050-201700-
...SOUTH CAROLINA...

CITY           SKY/WX    TMP DP  RH WIND       PRES   REMARKS
N CHARLESTON   CLOUDY    73  65  75 N12       30.06S
WATERFRONT PRK   N/A     73 N/A N/A N17         N/A
FORT JOHNSON   NOT AVBL
MOUNT PLEASANT FAIR      72  68  88 N7        30.06S
JOHNS ISLAND   SUNNY     72  72 100 N9        30.05S
PINOPOLIS        N/A     72  64  78 NE16      30.00F
MONCKS CORNER    N/A     72  68  88 NE10G17   30.08S
SUMMERVILLE    FAIR      72  66  83 N8        30.08F
BEAUFORT MCAS  CLOUDY    72  67  84 W18       30.05S
BEAUFORT ARPT  CLOUDY    72  70  94 N10       30.05R
HILTON HEAD IS PTSUNNY   73  70  88 N14G23    30.05S
GEORGETOWN     NOT AVBL
WALTERBORO     CLOUDY    72  68  88 NE10      30.08F
ORANGEBURG     CLOUDY    73  60  63 NE14G21   30.12S
BARNWELL       FAIR      75  64  69 NE10G20   30.11S
AIKEN          FAIR      79  66  65 N10       30.16F
MANNING        FAIR      72  66  83 N6        30.11S
KINGSTREE      NOT AVBL
COLUMBIA       PTSUNNY   79  59  50 NE9       30.13R
SUMTER         PTSUNNY   72  59  62 NE14      30.13S
FLORENCE       CLOUDY    72  62  71 NE12      30.13F
MYRTLE BEACH   PTSUNNY   73  63  68 NE14      30.08F
N MYRTLE BEACH CLOUDY    73  65  75 N10G20    30.08S

$$

GAZ063-065-086>088-099>101-113>116-118-119-134-136>141-150-201700-
...GEORGIA...

CITY           SKY/WX    TMP DP  RH WIND       PRES   REMARKS
SAVANNAH ARPT  CLOUDY    74  67  78 NE13G21   30.04S
HUNTER AAF     CLOUDY    73  69  88 N9        30.02S
FORT STEWART   CLOUDY    75  68  78 N12       30.02S
STATESBORO     NOT AVBL
SYLVANIA       PTSUNNY   78  71  78 NE10      30.09F
CLAXTON        PTSUNNY   77  70  78 NE8       30.06F
THOMSON        SUNNY     79  71  76 N9G16     30.17F
AUGUSTA-BUSH   SUNNY     80  63  55 NE12      30.10F
AUGUSTA-DANIEL SUNNY     81  64  56 N12       30.12F
SWAINSBORO     FAIR      81  70  69 E7        30.09F
VIDALIA        CLOUDY    77  70  78 NE14G21   30.07F
ALMA           PTSUNNY   79  68  69 VRB7G20   30.03F
WAYCROSS       CLOUDY    80  74  81 NE14      30.03S
JESUP          CLOUDY    79  72  78 N9        30.03S
BRUNSWICK      CLOUDY    73  70  88 N6        30.00S
SAINT SIMONS   CLOUDY    76  70  82 NE12G21   29.98F

$$

SCZ027-028-034-036>038-045-046-048>050-GAZ119-141-201700-
...LAKE AND SUPPLEMENTAL COASTAL OBSERVATIONS...

STATION/POSITION TIME  TEMP    WIND        PRES    WAVE   SWELL
                       AIR SEA DIR/SP/G            HT/PER HT/PER/DIR
                 (UTC) (F)     (DEG/KT/KT) (MB)    (FT/S) (FT/S/D)
UPR LAKE MARION  NOT AVBL
WINYAH BAY       1500   71      20/  8     1018.0S
LAKE MURRAY      1500   75      30/  4/ 10 1020.0F
ACE BASIN NERRS  1500   69      20/  4     1017.0S
FORT PULASKI     1600   72      10/ 14/ 19 1017.0R
SAPELO ISLAND    1500   76      50/ 10     1016.0S

$$

ANZ835-935-AMZ111-154-330-350-352-354-374-450-454-472-201700-
...C-MAN AND BUOY OBSERVATIONS...

STATION/POSITION TIME  TEMP    WIND        PRES    WAVE   SWELL
                       AIR SEA DIR/SP/G            HT/PER HT/PER/DIR
                 (UTC) (F)     (DEG/KT/KT) (MB)    (FT/S) (FT/S/D)
FOLLY BEACH CMAN 1500   72      30/ 21/ 23 1017.9R
BUOY 41004       1600   78 82   30/ 25/ 37 1014.7F   7/ 7   3/ 9
BUOY 41008       1600   78 83   70/ 21/ 25 1014.8F   6/ 8   2/100/11
5E ST. MARYS GA  1600      84                N/A     5/ 6
FRYING PAN BUOY  NOT AVBL
BUOY 41025       1600   81     110/ 14/ 16 1018.5F   8/10   7/ 70/10
CAPE LOOKOUT NC  1500   72      20/ 18/ 23 1019.2F
BUOY 41002       1509   76 82  100/ 21/ 25 1015.3F   9/ 6
BUOY 41010       1600   81 84  220/ 17/ 21 1012.3F   5/ 7   5/ 60/ 7
BUOY 41012       NOT AVBL
ST AUGUSTINE FL  1600   77      10/ 13/ 15 1014.4F
CAPERS NEARSHORE 1500   73      40/ 23/ 25   N/A
FRIPP NEARSHORE  NOT AVBL


$$



USA.gov is the U.S. government's official web portal to all federal, state and local government web resources and services.